Flag for U.S.A. Weather past 2 weeks in Sidney, Montana, U.S.A.

Now
34 °F

Clear.


Feels Like: 34 °F
Forecast: 34 / 39 °F
Wind: No wind

Location: Sidney-Richland

Current Time: Jan 27, 2015 at 9:18:53 PM

Latest Report: Jan 27, 2015 at 8:35 PM


Visibility: 10 mi

Pressure: 29.80 "Hg

Humidity: 93%

Dew point: 32 °F

Location of SidneyLocation

Historic Weather in Sidney — Graph

°F

Sidney temperature yesterday

Maximum temperature yesterday: 52 °F (at 12:55 PM)
Minimum temperature yesterday: 30 °F (at 6:15 AM)
Average temperature yesterday: 39 °F

Past Weeks' High & Low Weather Summary

 TemperatureHumidityPressure
High54 °F (Jan 27, 2:15 PM)100% (Jan 13, 12:15 AM)30.36 "Hg (Jan 13, 12:15 AM)
Low-4 °F (Jan 13, 6:15 AM)19% (Jan 12, 7:35 PM)29.54 "Hg (Jan 16, 8:15 PM)
Average31 °F74%29.97 "Hg
* Reported Jan 12 7:35 PM — Jan 27 7:35 PM, Sidney, Weather by CustomWeather, © 2014

Note: Actual official high and low records may vary slightly from our data, if they occured in-between our weather recording intervals... More about our weather records

Advertising

Sidney weather history for previous 24 hours

 ConditionsComfort  
Time TempWeatherWind HumidityBarometerVisibility
7:35 PM
Jan 27
36 °FClear.No wind93%29.79 "Hg10 mi
7:15 PM34 °FClear.No wind87%29.79 "Hg10 mi
6:55 PM37 °FClear.No wind87%29.79 "Hg10 mi
6:35 PM39 °FClear.No wind81%29.79 "Hg10 mi
6:15 PM39 °FClear.No wind81%29.80 "Hg10 mi
5:55 PM39 °FClear.No wind81%29.81 "Hg10 mi
5:35 PM39 °FClear.3 mph81%29.81 "Hg10 mi
5:15 PM43 °FClear.6 mph76%29.82 "Hg10 mi
4:55 PM43 °FClear.7 mph76%29.82 "Hg10 mi
4:35 PM45 °FSunny.No wind71%29.82 "Hg10 mi
4:15 PM50 °FSunny.No wind58%29.81 "Hg10 mi
3:55 PM48 °FSunny.3 mph66%29.81 "Hg10 mi
3:35 PM50 °FSunny.7 mph62%29.81 "Hg10 mi
3:15 PM52 °FSunny.7 mph58%29.82 "Hg10 mi
2:55 PM54 °FSunny.6 mph54%29.83 "Hg10 mi
2:35 PM54 °FSunny.9 mph58%29.83 "Hg10 mi
2:15 PM54 °FSunny.8 mph58%29.83 "Hg10 mi
1:55 PM52 °FSunny.8 mph58%29.83 "Hg10 mi
1:35 PM52 °FSunny.6 mph58%29.83 "Hg10 mi
1:15 PM50 °FSunny.9 mph62%29.84 "Hg10 mi
12:55 PM48 °FSunny.8 mph66%29.85 "Hg10 mi
12:35 PM48 °FSunny.9 mph62%29.85 "Hg10 mi
12:15 PM48 °FSunny.10 mph66%29.86 "Hg10 mi
11:55 AM48 °FSunny.9 mph66%29.86 "Hg10 mi
11:35 AM46 °FSunny.8 mph66%29.87 "Hg10 mi
11:15 AM45 °FSunny.7 mph71%29.88 "Hg10 mi
10:55 AM43 °FSunny.9 mph76%29.87 "Hg10 mi
10:35 AM41 °FSunny.7 mph81%29.88 "Hg10 mi
10:15 AM39 °FSunny.9 mph87%29.88 "Hg10 mi
9:55 AM39 °FSunny.6 mph81%29.88 "Hg10 mi
9:35 AM37 °FSunny.7 mph87%29.87 "Hg10 mi
9:15 AM36 °FSunny.6 mph87%29.87 "Hg10 mi
8:55 AM34 °FSunny.8 mph87%29.87 "Hg10 mi
8:35 AM34 °FSunny.10 mph81%29.87 "Hg10 mi
8:15 AM30 °FSunny.No wind93%29.87 "Hg10 mi
7:55 AM30 °FSunny.No wind86%29.87 "Hg10 mi
7:35 AM28 °FSunny.No wind93%29.87 "Hg10 mi
7:15 AM28 °FClear.No wind100%29.86 "Hg10 mi
6:55 AM28 °FClear.3 mph93%29.86 "Hg10 mi
6:35 AM30 °FClear.3 mph86%29.86 "Hg10 mi
6:15 AM30 °FClear.5 mph93%29.86 "Hg10 mi
5:55 AM30 °FClear.No wind86%29.86 "Hg10 mi
5:35 AM30 °FClear.No wind93%29.85 "Hg10 mi
5:15 AM30 °FClear.5 mph93%29.86 "Hg10 mi
4:55 AM30 °FClear.No wind93%29.86 "Hg10 mi
4:35 AM30 °FClear.7 mph93%29.86 "Hg10 mi
4:15 AM32 °FClear.8 mph87%29.85 "Hg10 mi
3:55 AM30 °FClear.9 mph93%29.85 "Hg10 mi
3:35 AM30 °FClear.10 mph93%29.85 "Hg10 mi
3:15 AM30 °FClear.No wind93%29.85 "Hg10 mi
2:55 AM30 °FClear.No wind93%29.87 "Hg10 mi
2:35 AM30 °FClear.No wind93%29.87 "Hg10 mi
2:15 AM30 °FClear.No wind86%29.87 "Hg10 mi
1:55 AM30 °FClear.No wind93%29.87 "Hg10 mi
1:35 AM28 °FClear.No wind93%29.87 "Hg10 mi
1:15 AM28 °FClear.No wind93%29.87 "Hg10 mi
12:55 AM28 °FClear.No wind100%29.87 "Hg10 mi
12:35 AM30 °FClear.No wind93%29.88 "Hg10 mi
12:15 AM30 °FClear.No wind93%29.88 "Hg10 mi
11:55 PM
Jan 26
30 °FClear.No wind86%29.89 "Hg10 mi
11:35 PM30 °FClear.No wind93%29.89 "Hg10 mi
11:15 PM30 °FClear.No wind93%29.90 "Hg10 mi
10:55 PM30 °FClear.No wind100%29.89 "Hg10 mi
10:35 PM30 °FClear.No wind93%29.89 "Hg10 mi
10:15 PM30 °FClear.No wind93%29.89 "Hg10 mi
9:55 PM30 °FClear.No wind93%29.90 "Hg10 mi
9:35 PM32 °FClear.No wind87%29.90 "Hg10 mi
9:15 PM32 °FClear.No wind93%29.91 "Hg10 mi
Weather by CustomWeather, © 2014

See weather overviewHow to use our weather pages